Wind_Speed
28 29 30 30 30 30 30 30 31 30 30 31 32 33 34 35 34 35 36 36 37 37 38 38 38 39 39 40 40 41 41 41 41 40 40 40 40 40
26 27 27 28 29 29 30 30 30 31 30 30 31 32 33 34 35 36 36 37 38 38 39 39 40 40 40 40 40 41 41 42 42 42 42 42 41 41
26 27 27 27 28 28 29 30 30 31 31 30 30 31 33 33 34 34 35 37 36 36 37 38 38 39 40 40 40 41 41 42 42 42 42 43 42 42
26 27 27 27 27 28 29 29 30 31 31 31 31 31 32 32 33 33 34 34 35 35 35 36 38 39 40 41 41 41 42 43 43 43 43 43 43 43
25 26 27 28 27 28 28 29 30 30 31 31 30 31 31 32 32 33 33 33 35 35 35 36 37 38 40 41 41 42 42 43 43 43 43 43 43 43
26 27 27 28 28 28 29 29 30 30 30 31 31 31 31 31 32 32 33 33 34 35 36 36 37 38 40 41 42 42 43 43 43 43 44 44 43 43
26 27 28 28 29 29 29 30 30 30 31 31 31 31 32 32 33 33 33 33 33 35 36 36 37 37 38 39 41 42 42 43 43 43 43 44 44 43
26 27 28 28 28 28 29 30 30 29 29 30 31 32 33 34 34 33 32 33 33 34 35 35 36 36 37 38 39 40 41 41 42 43 43 43 43 44
26 27 28 28 28 28 28 29 29 29 29 30 31 32 32 32 33 32 32 33 33 33 33 33 34 34 35 36 37 38 39 40 42 43 43 43 42 43
26 26 27 27 27 27 27 27 27 27 28 28 29 29 30 30 30 30 31 32 31 31 32 32 33 33 33 34 36 37 38 39 40 41 42 42 42 43
25 25 26 27 26 26 26 25 26 26 26 26 26 26 26 26 27 27 27 28 29 29 30 30 31 32 33 33 34 35 36 38 39 40 41 41 42 42
25 25 25 25 25 25 24 24 24 23 23 24 24 23 23 23 23 24 24 24 26 27 28 29 31 32 32 32 33 33 35 37 38 39 40 41 41 41
25 26 25 25 25 24 24 23 23 22 22 23 23 22 22 22 22 23 22 23 24 26 26 27 29 31 32 32 32 32 33 34 36 38 40 41 41 41
25 26 25 25 25 25 24 23 23 22 22 22 22 22 22 22 22 23 23 22 23 24 25 26 27 28 30 31 32 32 33 33 35 37 38 40 41 41
26 26 26 26 25 25 24 23 23 22 22 22 23 22 22 22 21 21 21 20 21 22 24 25 26 27 28 29 30 31 32 33 34 35 37 38 39 40
26 26 26 25 25 24 24 23 23 23 23 23 23 22 21 21 21 20 19 19 19 19 20 21 23 24 26 27 28 30 31 32 33 34 35 36 37 38
27 27 26 26 26 25 25 24 24 23 23 24 23 22 21 21 19 18 17 16 16 17 19 20 20 21 22 24 25 27 28 29 30 31 32 33 34 35
27 26 26 25 25 24 24 24 24 23 23 24 23 21 20 19 17 16 16 16 16 15 17 18 19 19 20 21 23 24 26 27 28 29 31 33 33 33
27 26 26 25 25 24 24 24 24 24 24 23 22 20 19 18 17 16 16 16 15 15 15 15 16 16 17 18 19 21 23 25 27 28 29 31 32 32
28 27 26 26 25 26 25 25 25 25 24 24 22 21 19 18 17 15 14 14 14 13 13 13 13 12 13 14 15 17 20 22 24 25 26 28 29 30
28 27 27 26 26 26 26 25 25 25 25 25 23 21 19 18 17 15 14 14 13 12 12 10 10 9 10 11 12 13 15 18 21 22 23 25 27 28
27 27 27 26 26 26 25 25 26 25 25 24 23 21 20 19 17 15 14 13 12 11 10 9 9 8 8 7 8 9 11 14 16 18 19 22 24 25
28 28 27 27 27 26 26 26 25 25 25 24 23 21 20 19 18 16 14 13 12 12 10 9 7 6 6 6 7 8 9 11 12 13 15 18 20 22
Wind_Direction
297 296 292 288 288 286 284 283 283 282 281 279 277 274 272 268 267 265 263 261 260 259 256 254 253 252 250 249 249 248 246 246 245 245 244 243 243 243
300 299 295 292 291 289 287 286 285 284 283 282 281 278 274 270 267 266 264 261 260 259 256 255 253 252 250 249 248 248 247 245 245 245 245 244 243 243
300 300 297 294 292 290 289 287 286 285 284 283 282 279 277 273 270 269 266 263 260 257 256 255 254 252 250 249 248 248 247 246 245 245 245 244 243 242
301 300 299 297 295 293 292 290 289 287 286 285 282 281 277 274 272 269 267 265 261 258 256 255 254 252 250 249 248 248 247 247 246 244 243 243 242 241
303 302 300 299 297 296 295 293 291 289 288 286 283 281 278 276 273 270 268 266 262 258 255 255 254 253 251 250 249 249 247 246 245 243 242 242 242 241
307 305 302 300 299 298 296 295 293 290 289 286 285 282 279 277 275 271 268 266 262 259 257 255 255 254 252 251 250 248 247 246 245 245 244 243 242 241
309 307 304 301 300 299 298 296 294 292 289 286 284 283 280 278 275 272 268 265 263 262 259 257 256 254 253 251 250 249 248 247 247 246 245 244 242 240
310 309 308 305 304 302 301 301 298 295 291 288 285 282 280 277 274 270 268 265 265 264 261 258 256 254 252 251 249 248 247 246 245 244 244 243 243 241
314 312 310 310 309 306 305 304 302 299 294 291 288 285 282 280 276 272 269 267 266 265 263 260 256 254 253 251 249 247 246 245 244 243 244 244 243 241
316 315 314 313 314 312 310 308 306 303 299 296 293 289 285 282 278 275 271 269 266 264 262 260 257 254 252 251 248 246 245 244 244 243 243 243 242 240
321 321 321 320 318 316 315 313 310 307 303 301 298 295 290 284 280 277 275 272 267 264 263 260 256 254 251 250 250 248 246 245 244 243 242 242 242 241
326 327 327 326 323 321 320 318 314 310 306 304 302 299 295 291 286 281 278 274 269 266 263 261 257 256 252 250 249 249 248 247 245 244 243 241 240 240
330 331 331 331 328 325 323 321 317 314 311 308 306 304 300 296 290 285 282 276 272 268 265 263 261 259 257 252 250 249 248 247 245 243 243 241 240 240
335 334 333 333 331 329 327 325 323 321 319 316 313 310 303 299 294 288 283 276 272 270 267 265 263 262 258 253 253 251 249 246 244 242 241 240 238 238
339 337 337 336 335 333 332 330 328 327 325 322 318 315 309 305 299 292 287 280 274 273 270 268 266 264 260 255 253 251 248 246 244 242 240 239 238 237
341 340 339 338 338 337 336 333 332 330 327 325 322 318 314 311 304 296 291 284 278 276 275 272 269 267 262 256 252 249 247 246 243 240 239 238 238 236
344 343 342 341 341 339 338 337 336 335 332 330 328 324 320 316 310 303 298 291 286 283 281 277 272 269 261 254 249 245 245 244 243 240 238 238 237 237
347 347 346 345 345 344 343 342 341 339 337 335 333 328 324 321 316 309 304 301 295 288 284 279 275 270 263 257 251 247 245 242 239 238 238 237 238 238
351 351 351 350 350 348 347 346 344 342 340 339 338 336 332 328 323 315 310 307 300 293 291 285 279 272 267 260 253 248 244 241 240 238 238 238 237 237
355 354 353 353 352 351 350 348 346 345 345 344 343 343 341 337 332 325 318 313 307 302 297 290 283 276 271 263 257 250 243 241 239 237 237 237 236 238
356 355 354 354 353 353 353 352 351 351 351 351 352 350 348 345 342 337 331 326 320 315 309 301 294 283 276 269 261 253 245 239 237 236 235 236 237 238
357 356 356 356 356 356 356 357 357 356 356 356 355 353 353 352 349 345 342 340 337 332 324 315 308 299 287 274 260 251 248 245 243 237 234 236 236 236
0 360 0 0 359 358 359 359 358 359 359 359 358 357 356 354 352 349 347 348 347 345 340 332 323 311 292 277 264 254 249 248 246 241 234 236 238 238
Height
5728 5724 5721 5717 5714 5712 5709 5707 5706 5704 5703 5702 5700 5699 5698 5698 5697 5698 5698 5699 5700 5701 5703 5705 5707 5709 5711 5714 5717 5719 5723 5726 5729 5732 5735 5738 5741 5745
5720 5717 5713 5710 5706 5704 5701 5699 5696 5695 5693 5692 5690 5689 5688 5687 5687 5687 5688 5688 5689 5690 5692 5694 5696 5698 5700 5703 5706 5709 5712 5715 5718 5721 5724 5727 5731 5735
5713 5710 5706 5702 5699 5696 5693 5690 5688 5686 5684 5683 5681 5679 5678 5677 5677 5676 5676 5677 5677 5679 5681 5682 5684 5687 5689 5692 5695 5697 5701 5704 5707 5710 5713 5717 5720 5724
5707 5703 5699 5695 5691 5688 5685 5682 5679 5677 5675 5673 5672 5670 5668 5668 5667 5666 5666 5666 5667 5668 5670 5671 5673 5675 5678 5680 5683 5686 5689 5692 5695 5699 5702 5706 5709 5712
5700 5696 5692 5688 5684 5680 5677 5673 5670 5668 5666 5664 5662 5660 5659 5657 5657 5656 5656 5656 5656 5657 5659 5660 5662 5664 5666 5669 5671 5674 5677 5681 5684 5687 5691 5694 5698 5701
5693 5689 5684 5680 5677 5673 5669 5665 5662 5659 5657 5655 5652 5650 5649 5647 5646 5646 5645 5645 5646 5646 5647 5649 5650 5652 5654 5657 5660 5662 5665 5668 5672 5675 5679 5683 5687 5691
5686 5681 5677 5672 5668 5664 5661 5657 5654 5650 5648 5645 5643 5641 5639 5637 5636 5635 5635 5634 5635 5635 5636 5637 5639 5640 5642 5644 5647 5650 5653 5657 5660 5664 5667 5671 5675 5679
5679 5674 5669 5665 5660 5656 5652 5648 5645 5641 5638 5635 5633 5631 5629 5627 5625 5624 5623 5624 5624 5625 5624 5625 5626 5628 5630 5633 5635 5638 5641 5644 5648 5652 5656 5660 5663 5668
5673 5667 5662 5657 5653 5648 5644 5640 5636 5632 5629 5626 5623 5620 5618 5617 5615 5614 5613 5612 5613 5613 5613 5614 5615 5617 5619 5621 5623 5626 5629 5633 5636 5640 5644 5648 5652 5656
5666 5661 5656 5650 5645 5641 5636 5632 5628 5623 5620 5617 5614 5611 5608 5606 5604 5603 5602 5602 5602 5602 5602 5604 5605 5606 5608 5610 5612 5615 5618 5621 5625 5629 5632 5636 5640 5644
5660 5655 5649 5644 5639 5634 5629 5625 5620 5616 5612 5608 5605 5602 5599 5597 5595 5593 5592 5592 5592 5592 5592 5593 5595 5596 5597 5599 5601 5604 5607 5610 5614 5617 5621 5625 5629 5632
5655 5649 5644 5638 5633 5628 5623 5618 5614 5609 5605 5601 5598 5594 5591 5589 5586 5585 5583 5583 5582 5583 5583 5583 5584 5585 5587 5589 5591 5593 5596 5599 5602 5606 5609 5613 5617 5621
5649 5644 5638 5633 5628 5622 5617 5613 5608 5603 5599 5595 5591 5587 5584 5581 5579 5577 5575 5574 5574 5574 5574 5574 5575 5575 5577 5579 5580 5583 5585 5588 5591 5594 5598 5602 5607 5611
5645 5639 5634 5628 5623 5617 5612 5607 5602 5597 5593 5588 5584 5581 5577 5574 5571 5569 5567 5566 5565 5565 5564 5564 5565 5565 5566 5568 5570 5572 5574 5577 5580 5583 5587 5591 5596 5600
5641 5635 5630 5624 5618 5613 5607 5602 5597 5592 5587 5583 5579 5575 5571 5567 5564 5562 5560 5558 5557 5556 5555 5555 5555 5555 5556 5558 5560 5562 5564 5567 5569 5573 5577 5581 5585 5589
5637 5631 5625 5620 5614 5608 5603 5598 5592 5587 5582 5578 5573 5569 5565 5561 5558 5555 5553 5551 5549 5548 5547 5547 5546 5547 5547 5548 5550 5552 5554 5557 5560 5563 5567 5571 5574 5579
5633 5627 5622 5616 5610 5604 5599 5594 5588 5583 5578 5572 5568 5563 5559 5555 5552 5549 5547 5544 5543 5542 5540 5539 5539 5538 5539 5539 5541 5543 5545 5547 5550 5554 5557 5561 5565 5569
5630 5624 5618 5612 5607 5601 5596 5590 5584 5579 5574 5568 5563 5558 5554 5550 5546 5543 5541 5539 5537 5535 5534 5533 5532 5531 5531 5532 5533 5535 5537 5539 5542 5545 5549 5552 5556 5560
5628 5622 5616 5610 5604 5599 5593 5587 5581 5576 5570 5564 5559 5554 5549 5545 5542 5539 5536 5534 5531 5530 5528 5526 5525 5525 5525 5526 5527 5527 5529 5531 5534 5537 5540 5544 5548 5552
5626 5620 5614 5608 5602 5596 5590 5584 5579 5573 5567 5561 5555 5551 5546 5542 5538 5535 5532 5529 5527 5524 5523 5521 5520 5519 5520 5520 5521 5521 5522 5524 5527 5530 5533 5536 5540 5543
5624 5618 5612 5606 5600 5594 5588 5582 5576 5570 5564 5558 5552 5548 5543 5539 5535 5532 5528 5525 5523 5521 5519 5517 5516 5515 5515 5515 5516 5516 5517 5518 5520 5523 5526 5529 5532 5535
5623 5617 5610 5604 5598 5592 5586 5580 5574 5568 5562 5556 5551 5546 5541 5537 5533 5529 5526 5523 5521 5518 5516 5515 5513 5512 5512 5512 5512 5512 5513 5514 5515 5517 5520 5522 5525 5528
5622 5616 5609 5603 5597 5591 5585 5579 5573 5567 5561 5555 5549 5544 5540 5535 5531 5528 5524 5521 5519 5517 5514 5512 5511 5510 5510 5510 5510 5510 5510 5511 5512 5513 5515 5516 5519 5521